[[{"header":{"parameterUnit":"m.s-1","parameterCategory":1,"la1":30.2991,"la2":30.254,"lo1":-89.0895,"lo2":-89.0444,"dy":0.0017,"dx":0.0017,"nx":28,"ny":28,"refTime":"2023-09-17T03:00:00:Z","depth":0,"parameterNumber":2,"parameterNumberName":"U-component_of_WINDS"},"data":[0,0,0,0,0,0,0,0,0,0,0,0,0,0,0,0,0,0,0,0,0,0,0,0,0,0,0,0,0,0,0,0,0,0,0,0,0,0,0,0,0,0,0,0,0,0,0,0,0,0,0,0,0,0,0,0,0,0,2.392,2.392,0,2.3927,2.3927,2.3928,2.3887,2.3886,2.3885,2.3884,2.389,2.3891,2.3892,0,0,0,0,0,0,0,0,0,0,0,0,0,2.3871,2.3872,2.392,2.392,2.3921,2.3927,2.3927,2.3928,2.3887,2.3886,2.3885,2.3883,2.3889,2.3891,2.3892,0,0,0,0,0,0,0,0,0,0,0,0,0,2.3887,2.3873,2.392,2.3901,2.39,2.3927,2.3927,2.3928,2.3888,2.3886,2.3884,2.3883,2.3889,2.3891,2.3893,2.3938,0,0,2.3898,2.3899,0,0,0,0,0,0,0,0,2.3886,2.3889,2.3904,2.3903,2.3901,2.3905,2.3912,2.3931,2.3888,2.3892,2.3884,2.3882,2.3896,2.3897,2.3902,2.3939,2.3939,2.3898,2.39,2.39,2.3901,0,0,0,0,0,0,0,2.3885,2.3888,2.3923,2.3904,2.3902,2.3892,2.3893,2.3916,2.3904,2.3892,2.3889,2.389,2.3895,2.3901,2.3902,2.3939,2.3898,2.39,2.3901,2.3902,2.4013,2.4015,0,0,0,0,0,0,2.3887,2.3888,2.3923,2.3923,2.3889,2.3895,2.3895,2.3905,2.3903,2.3901,2.3892,2.3888,2.3898,2.39,2.3902,2.3955,2.39,2.3902,2.3903,2.4011,2.4014,2.4016,0,0,0,0,0,0,2.3886,2.389,2.3923,2.3905,2.3908,2.3897,2.3909,2.3906,2.3912,2.3903,2.3901,2.39,2.3897,2.39,2.393,2.3955,2.3903,2.3905,2.4009,2.4012,2.4015,2.4062,0,0,0,0,0,0,2.3884,2.389,2.3907,2.3905,2.3909,2.395,2.3911,2.3908,2.3915,2.3911,2.391,2.3909,2.3896,2.3927,2.3932,2.3957,2.3906,2.4007,2.4011,2.4014,2.4058,2.4066,2.4073,0,0,0,0,0,2.3883,2.392,2.3909,2.3913,2.3931,2.3952,2.3954,2.3939,2.3918,2.3935,2.3929,2.3909,2.3952,2.3931,2.3935,2.3961,2.4005,2.4009,2.4014,2.4055,2.4065,2.4073,0,0,0,0,0,0,2.3925,2.392,2.3906,2.3944,2.3949,2.3945,2.3966,2.395,2.396,2.3955,2.3936,2.3936,2.397,2.3969,2.3945,2.4005,2.3975,2.398,2.4005,2.4014,2.4021,2.402,2.3908,0,0,0,0,0,2.3939,2.3957,2.3951,2.3985,2.3988,2.3977,2.3986,2.3974,2.3978,2.3979,2.3976,2.398,2.3994,2.4004,2.4017,2.4058,2.4057,2.4079,2.4086,2.4092,2.4096,2.4118,2.4127,2.4029,2.4029,2.4029,0,0,2.3967,2.3966,2.3979,2.3993,2.3996,2.4014,2.3979,2.4,2.4013,2.3982,2.401,2.4008,2.4012,2.4048,2.4063,2.4048,2.4123,2.4097,2.4102,2.4103,2.4123,2.4132,2.414,2.4032,2.4032,2.4031,0,0,2.4028,2.403,2.4058,2.4061,2.4065,2.4058,2.4065,2.4064,2.4061,2.4089,2.4066,2.4082,2.4108,2.4111,2.4116,2.418,2.416,2.4184,2.4222,2.4243,2.4251,2.4258,2.428,2.4288,2.4189,2.4189,2.4189,0,2.4063,2.409,2.4075,2.4098,2.4105,2.4078,2.4107,2.411,2.4118,2.4123,2.4106,2.4138,2.4138,2.4174,2.419,2.4195,2.4202,2.4184,2.4251,2.4258,2.4264,2.4285,2.4293,2.4192,2.4192,2.4191,2.4191,0,2.4132,2.4152,2.4174,2.4183,2.4193,2.4218,2.4206,2.4218,2.4206,2.42,2.4229,2.4229,2.4242,2.425,2.4238,2.4284,2.4274,2.4255,2.4223,2.4276,2.4295,2.4303,2.4196,2.4195,2.4194,2.4193,0,0,2.4218,2.4219,2.4227,2.4231,2.4234,2.4249,2.4273,2.4286,2.4296,2.4303,2.4322,2.4345,2.4327,2.4333,2.4321,2.434,2.439,2.4318,2.4318,2.433,2.444,2.4454,2.4463,2.4378,2.4379,2.4381,2.444,0,2.4277,2.4319,2.4307,2.4349,2.4366,2.4342,2.4363,2.4367,2.4363,2.4377,2.4372,2.4389,2.4364,2.4367,2.4385,2.438,2.4411,2.4376,2.4395,2.4396,2.4394,2.4473,2.4488,2.4544,2.4447,2.4448,2.4449,0,2.4351,2.4361,2.4405,2.4406,2.4413,2.4432,2.4443,2.4457,2.4461,2.4457,2.4464,2.4448,2.4472,2.4442,2.4474,2.445,2.4458,2.4457,2.4459,2.4459,2.4425,2.4475,2.4561,2.4569,2.4461,2.446,2.4459,0,2.4408,2.4433,2.4463,2.4467,2.4468,2.4482,2.4484,2.4486,2.4495,2.4504,2.4509,2.4521,2.4528,2.4537,2.4526,2.4505,2.4559,2.4528,2.4556,2.4556,2.4567,2.4566,2.4655,2.4574,2.4574,2.4574,2.4574,0,2.4475,2.4502,2.4489,2.4507,2.4537,2.4522,2.4553,2.4551,2.4554,2.4571,2.4551,2.4567,2.4552,2.4566,2.4558,2.4585,2.4589,2.4585,2.4582,2.4586,2.4586,2.459,2.4585,2.4576,2.4576,2.4575,2.4575,0,2.4543,2.4535,2.4566,2.4565,2.4565,2.4588,2.4587,2.4603,2.4598,2.462,2.4624,2.4616,2.4632,2.4622,2.4639,2.4633,2.4669,2.4661,2.4667,2.4665,2.4692,2.469,2.4785,2.4796,2.471,2.4711,2.4711,0,2.4585,2.4606,2.4608,2.4618,2.4621,2.4638,2.4646,2.4633,2.4643,2.465,2.4666,2.4681,2.4692,2.4719,2.4714,2.4727,2.4719,2.4752,2.4721,2.4724,2.4718,2.4716,2.4718,2.4757,2.4758,2.4759,2.476,0,2.4661,2.4656,2.467,2.4682,2.4694,2.4703,2.471,2.472,2.4707,2.4719,2.4736,2.4744,2.4762,2.4777,2.4788,2.4788,2.4772,2.477,2.4777,2.478,2.4783,2.4781,2.4683,2.4767,2.4767,2.4766,2.4766,2.4765,2.4717,2.4734,2.4738,2.4754,2.4758,2.4766,2.4781,2.4779,2.4793,2.4806,2.4798,2.4818,2.4821,2.4834,2.4837,2.4853,2.4839,2.4849,2.4852,2.4854,2.4857,2.4782,2.4855,2.4854,2.4854,2.4854,2.4854,0,2.479,2.4792,2.4807,2.4818,2.4831,2.4815,2.4823,2.4834,2.4852,2.4857,2.4869,2.4889,2.4903,2.49,2.4913,2.4926,2.4919,2.493,2.4928,2.4928,2.4869,2.4861,2.4935,2.4935,2.4935,2.4935,2.4935,2.4935,2.483,2.4858,2.4854,2.4884,2.4886,2.4905,2.4911,2.4918,2.4922,2.4945,2.4957,2.4955,2.4957,2.497,2.4983,2.4982,2.4987,2.5,2.4996,2.4941,2.4932,2.4925,2.4917,2.5002,2.5002,2.5054,2.5055,2.5055]},{"header":{"parameterUnit":"m.s-1","parameterCategory":1,"la1":30.2991,"la2":30.254,"lo1":-89.0895,"lo2":-89.0444,"dy":0.0017,"dx":0.0017,"nx":28,"ny":28,"refTime":"2023-09-17T03:00:00:Z","depth":0,"parameterNumber":3,"parameterNumberName":"V-component_of_WINDS"},"data":[0,0,0,0,0,0,0,0,0,0,0,0,0,0,0,0,0,0,0,0,0,0,0,0,0,0,0,0,0,0,0,0,0,0,0,0,0,0,0,0,0,0,0,0,0,0,0,0,0,0,0,0,0,0,0,0,0,0,-3.5032,-3.5033,0,-3.5171,-3.5172,-3.5174,-3.5155,-3.5153,-3.5151,-3.5149,-3.5288,-3.5294,-3.5299,0,0,0,0,0,0,0,0,0,0,0,0,0,-3.4749,-3.4754,-3.5032,-3.5034,-3.5035,-3.517,-3.5172,-3.5174,-3.5156,-3.5153,-3.515,-3.5148,-3.5286,-3.5293,-3.53,0,0,0,0,0,0,0,0,0,0,0,0,0,-3.4878,-3.4756,-3.5032,-3.5042,-3.5045,-3.517,-3.5172,-3.5175,-3.5156,-3.5153,-3.5149,-3.5146,-3.5284,-3.5292,-3.5301,-3.5423,0,0,-3.5328,-3.5331,0,0,0,0,0,0,0,0,-3.4871,-3.4889,-3.5039,-3.5042,-3.5045,-3.5142,-3.5124,-3.5258,-3.5157,-3.5114,-3.5149,-3.5145,-3.5242,-3.5254,-3.5287,-3.543,-3.5436,-3.5328,-3.5334,-3.5337,-3.534,0,0,0,0,0,0,0,-3.4862,-3.4882,-3.5087,-3.5041,-3.5045,-3.504,-3.5054,-3.5149,-3.5195,-3.5117,-3.5116,-3.5133,-3.5243,-3.5279,-3.5291,-3.5438,-3.5328,-3.5336,-3.5341,-3.5345,-3.5688,-3.5691,0,0,0,0,0,0,-3.485,-3.4875,-3.5082,-3.5091,-3.4948,-3.5048,-3.5064,-3.5114,-3.5194,-3.5203,-3.5136,-3.5132,-3.5266,-3.528,-3.5295,-3.5444,-3.5337,-3.5346,-3.5351,-3.5684,-3.5689,-3.5693,0,0,0,0,0,0,-3.4844,-3.4869,-3.5077,-3.4983,-3.5009,-3.5056,-3.5113,-3.5119,-3.5155,-3.5208,-3.5216,-3.5165,-3.5264,-3.5283,-3.5392,-3.5449,-3.535,-3.5357,-3.5679,-3.5685,-3.5691,-3.5743,0,0,0,0,0,0,-3.4836,-3.4867,-3.4915,-3.4984,-3.5014,-3.5172,-3.5116,-3.5124,-3.5171,-3.5166,-3.5237,-3.5246,-3.5262,-3.5379,-3.5401,-3.5459,-3.5364,-3.5674,-3.5682,-3.5689,-3.5736,-3.575,-3.5761,0,0,0,0,0,-3.4826,-3.4923,-3.4917,-3.4942,-3.5074,-3.5175,-3.5192,-3.521,-3.5175,-3.5223,-3.5257,-3.5243,-3.5439,-3.539,-3.5414,-3.5476,-3.5671,-3.568,-3.5688,-3.5731,-3.5747,-3.5761,0,0,0,0,0,0,-3.4858,-3.4932,-3.4926,-3.5049,-3.5106,-3.5172,-3.5233,-3.5227,-3.5294,-3.5288,-3.5306,-3.5323,-3.5433,-3.5465,-3.541,-3.5599,-3.555,-3.5564,-3.5574,-3.559,-3.5602,-3.5592,-3.5372,0,0,0,0,0,-3.488,-3.4956,-3.5016,-3.5118,-3.5147,-3.5185,-3.523,-3.5239,-3.5298,-3.5322,-3.5364,-3.5422,-3.5496,-3.5545,-3.5616,-3.5741,-3.5756,-3.5795,-3.5808,-3.5818,-3.583,-3.5898,-3.5917,-3.5721,-3.5721,-3.5721,0,0,-3.4924,-3.4974,-3.5021,-3.5126,-3.5171,-3.5249,-3.5206,-3.529,-3.5348,-3.5334,-3.544,-3.5473,-3.5539,-3.5656,-3.571,-3.5687,-3.5887,-3.5829,-3.5837,-3.5843,-3.5909,-3.5928,-3.5944,-3.5727,-3.5726,-3.5725,0,0,-3.5046,-3.5091,-3.5181,-3.5228,-3.5297,-3.5322,-3.5344,-3.5411,-3.5433,-3.5539,-3.5531,-3.56,-3.5728,-3.5775,-3.5815,-3.5955,-3.5945,-3.5978,-3.6043,-3.611,-3.6125,-3.6139,-3.6189,-3.6207,-3.5989,-3.599,-3.599,0,-3.5092,-3.521,-3.5228,-3.5314,-3.536,-3.5353,-3.5444,-3.5488,-3.5577,-3.5609,-3.5582,-3.5743,-3.5786,-3.5915,-3.5949,-3.5982,-3.6007,-3.597,-3.6122,-3.6136,-3.6149,-3.6197,-3.6216,-3.5993,-3.5993,-3.5992,-3.5992,0,-3.5264,-3.5346,-3.5411,-3.5498,-3.5551,-3.5639,-3.567,-3.5722,-3.5726,-3.5754,-3.5862,-3.5914,-3.5996,-3.6027,-3.6032,-3.6157,-3.614,-3.6117,-3.6068,-3.6171,-3.6216,-3.6235,-3.5998,-3.5997,-3.5996,-3.5995,0,0,-3.541,-3.5506,-3.553,-3.5569,-3.5646,-3.5709,-3.5796,-3.5878,-3.5922,-3.5983,-3.6057,-3.6166,-3.6145,-3.6191,-3.6201,-3.626,-3.6367,-3.6229,-3.6231,-3.6254,-3.6508,-3.6526,-3.6547,-3.6361,-3.6365,-3.6367,-3.6503,0,-3.5539,-3.5695,-3.5714,-3.5852,-3.5928,-3.5922,-3.5998,-3.6053,-3.6081,-3.6148,-3.6179,-3.6256,-3.6222,-3.625,-3.6308,-3.6342,-3.6419,-3.6333,-3.6429,-3.6433,-3.6414,-3.657,-3.6589,-3.6714,-3.6521,-3.6524,-3.6526,0,-3.5711,-3.5778,-3.5924,-3.599,-3.6023,-3.6091,-3.6167,-3.6233,-3.6294,-3.631,-3.6362,-3.6365,-3.6455,-3.6402,-3.6526,-3.6467,-3.6507,-3.653,-3.6535,-3.6545,-3.6486,-3.6585,-3.6755,-3.6774,-3.6554,-3.6552,-3.655,0,-3.5803,-3.593,-3.6034,-3.6068,-3.6148,-3.6196,-3.6231,-3.629,-3.6337,-3.6403,-3.6435,-3.651,-3.6551,-3.6609,-3.6632,-3.6591,-3.6755,-3.6704,-3.6771,-3.677,-3.6805,-3.6803,-3.6985,-3.6831,-3.6831,-3.683,-3.683,0,-3.5945,-3.6035,-3.6076,-3.6141,-3.6241,-3.6261,-3.636,-3.6393,-3.6445,-3.6515,-3.6514,-3.6579,-3.6605,-3.6674,-3.6692,-3.6793,-3.6811,-3.6826,-3.683,-3.6827,-3.6825,-3.6854,-3.6846,-3.6835,-3.6834,-3.6833,-3.6832,0,-3.6065,-3.6097,-3.621,-3.6276,-3.6295,-3.6366,-3.6422,-3.6484,-3.6511,-3.66,-3.6622,-3.6664,-3.6746,-3.6774,-3.6873,-3.6885,-3.7001,-3.6998,-3.6981,-3.6982,-3.7047,-3.7041,-3.7254,-3.7283,-3.711,-3.7112,-3.7113,0,-3.6154,-3.6223,-3.6298,-3.6345,-3.6382,-3.6458,-3.6507,-3.653,-3.6581,-3.6656,-3.6709,-3.679,-3.6857,-3.6988,-3.7027,-3.7102,-3.7101,-3.717,-3.7112,-3.7107,-3.7102,-3.7098,-3.7105,-3.7181,-3.7183,-3.7184,-3.7185,0,-3.631,-3.6322,-3.6393,-3.647,-3.6529,-3.659,-3.6649,-3.6688,-3.6719,-3.6776,-3.686,-3.6912,-3.7014,-3.7095,-3.7172,-3.7207,-3.7202,-3.7203,-3.7223,-3.7221,-3.7208,-3.7216,-3.7011,-3.7198,-3.7197,-3.7196,-3.7196,-3.7195,-3.6417,-3.6479,-3.6541,-3.662,-3.6667,-3.6723,-3.6784,-3.6819,-3.689,-3.6975,-3.6984,-3.7075,-3.7134,-3.7238,-3.7277,-3.7348,-3.7329,-3.7357,-3.7364,-3.7371,-3.7376,-3.7197,-3.7362,-3.7362,-3.7361,-3.7361,-3.7361,0,-3.6573,-3.6613,-3.6685,-3.6769,-3.6831,-3.6821,-3.6886,-3.6939,-3.7019,-3.7076,-3.7142,-3.7238,-3.7317,-3.7362,-3.7441,-3.7489,-3.7488,-3.7509,-3.7506,-3.7514,-3.7389,-3.7364,-3.7508,-3.7508,-3.7508,-3.7508,-3.7508,-3.7508,-3.6661,-3.6765,-3.6784,-3.6911,-3.6949,-3.7039,-3.7077,-3.7128,-3.7174,-3.7282,-3.7348,-3.7377,-3.743,-3.7512,-3.7583,-3.7595,-3.7624,-3.7646,-3.7656,-3.7538,-3.7523,-3.7508,-3.7485,-3.7652,-3.7653,-3.7775,-3.7776,-3.7777]}]]